User: anonymous   Login
Location: Prairie State College
(41.5244°N, 87.6382°W)
Time: 20:43:51
(UTC-05:00)
Language:

Cosmos 1140 Rocket - Orbit

View from above orbital plane
View from above orbital plane
View from above satellite
View from above satellite

Ground track
Ground track

The orbit data is extracted from the following two-line orbital elements,

1 11574U 79089B   17174.65956439 -.00000034 +00000-0 -24571-5 0  9991
2 11574 074.0674 207.0978 0014731 111.8273 248.4451 14.40630937978076
Epoch (UTC): 23 June 2017 15:49:46
Eccentricity: 0.0014731
inclination: 74.0674°
perigee height: 746 km
apogee height: 767 km
right ascension of ascending node: 207.0978°
argument of perigee: 111.8273°
revolutions per day: 14.40630937
mean anomaly at epoch: 248.4451°
orbit number at epoch: 97807

The dashed part of the orbit path shows where the satellite is in the earth's shadow,  

DLR